AI4ZL Weather Reports


Display with metric or nautical units.
time (UTC)temp
F
wind
direction
speed
MPH
gust
MPH
rain 1hr
in
rain 24hr
in
rain mn
in
humidity
%
barometer
mb
20260506193021 60 341 1.0 4.0 0.00 0.86 0.34 66 1016.9
20260506192027 60 319 1.0 4.0 0.00 0.87 0.34 66 1016.8
20260506191034 60 0.0 3.0 0.00 0.87 0.34 66 1016.5
20260506190019 61 341 1.0 3.0 0.00 0.87 0.34 64 1016.6
20260506185024 61 254 0.0 2.0 0.00 0.87 0.34 65 1016.3
20260506184049 61 83 0.0 2.0 0.00 0.87 0.34 64 1016.6
20260506183017 61 339 3.0 9.0 0.00 0.87 0.34 65 1016.5
20260506182042 63 353 0.0 3.0 0.00 0.87 0.34 63 1016.5
20260506181027 62 284 0.0 2.0 0.00 0.87 0.34 65 1016.4
20260506180032 61 49 1.0 3.0 0.00 0.87 0.34 65 1016.6
20260506175020 61 302 1.0 4.0 0.00 0.87 0.34 65 1016.8
20260506174025 61 203 0.0 2.0 0.00 0.87 0.34 65 1016.9
20260506173029 60 331 1.0 3.0 0.00 0.87 0.34 67 1016.8
20260506172017 60 353 1.0 3.0 0.00 0.87 0.34 69 1016.6
20260506171043 59 270 0.0 1.0 0.00 0.87 0.34 69 1016.7
20260506170028 59 306 1.0 2.0 0.00 0.88 0.34 69 1016.4
20260506165032 58 334 1.0 3.0 0.00 0.89 0.34 71 1016.4
20260506164020 58 309 1.0 7.0 0.00 0.95 0.34 73 1016.8
20260506163025 60 301 1.0 3.0 0.00 0.97 0.34 72 1016.5
20260506162031 59 88 1.0 3.0 0.00 0.97 0.34 73 1016.8
20260506161018 59 277 1.0 2.0 0.00 0.97 0.34 74 1017.0
20260506160024 57 50 0.0 3.0 0.00 0.97 0.34 77 1016.6
20260506155109 56 305 0.0 2.0 0.00 0.97 0.34 78 1016.8
20260506154016 56 148 0.0 3.0 0.00 0.99 0.34 78 1016.7
20260506153022 57 308 1.0 2.0 0.00 1.00 0.34 79 1016.5
20260506152026 55 311 1.0 2.0 0.00 1.00 0.34 80 1016.8
20260506151031 55 220 1.0 3.0 0.00 1.01 0.34 80 1016.9
20260506150019 55 296 1.0 4.0 0.00 1.01 0.34 81 1016.8
20260506145024 54 11 1.0 4.0 0.00 1.01 0.34 84 1016.6
20260506144110 53 183 0.0 4.0 0.00 1.01 0.34 89 1016.7
20260506143017 53 334 1.0 4.0 0.00 1.01 0.34 92 1016.6
20260506142022 53 23 0.0 2.0 0.00 1.02 0.34 96 1016.0
20260506141028 51 298 1.0 3.0 0.00 1.02 0.34 96 1015.8
20260506140032 51 78 0.0 2.0 0.00 1.06 0.34 99 1015.4
20260506135040 50 332 1.0 3.0 0.00 1.23 0.34 99 1015.6
20260506134025 49 308 1.0 2.0 0.00 1.29 0.34 99 1015.0
20260506133030 49 286 1.0 2.0 0.00 1.35 0.34 99 1014.7
20260506132018 48 0.0 2.0 0.00 1.39 0.34 99 1015.0
20260506131023 48 0.0 0.0 0.00 1.39 0.34 99 1015.1
20260506130028 48 0.0 0.0 0.00 1.39 0.34 99 1014.6
20260506125053 47 0.0 0.0 0.00 1.39 0.34 99 1015.1
20260506124042 47 0.0 0.0 0.00 1.39 0.34 99 1014.9
20260506123026 47 0.0 0.0 0.00 1.39 0.34 99 1014.7
20260506122030 47 0.0 0.0 0.00 1.39 0.34 99 1014.8
20260506121019 47 289 0.0 1.0 0.00 1.39 0.34 99 1014.8
20260506120044 46 0.0 0.0 0.00 1.39 0.34 99 1014.1
20260506115049 46 0.0 0.0 0.00 1.39 0.34 99 1014.2
20260506114033 46 0.0 0.0 0.00 1.39 0.34 99 1014.2
20260506113042 46 0.0 0.0 0.00 1.39 0.34 99 1014.1
20260506112027 46 0.0 0.0 0.00 1.39 0.34 99 1014.0
20260506111031 46 0.0 0.0 0.00 1.39 0.34 99 1013.8
20260506110019 45 0.0 0.0 0.00 1.39 0.34 99 1013.3
20260506105024 45 0.0 0.0 0.00 1.39 0.34 99 1013.5
20260506104029 45 0.0 0.0 0.00 1.39 0.34 99 1013.7
20260506103034 45 316 0.0 1.0 0.00 1.39 0.34 99 1013.6
20260506102022 45 166 0.0 1.0 0.00 1.39 0.34 99 1013.0
20260506101030 45 0.0 0.0 0.00 1.39 0.34 99 1013.4
20260506100032 45 288 0.0 1.0 0.01 1.39 0.34 99 1013.2
20260506095020 45 0.0 0.0 0.04 1.39 0.34 99 1013.6
20260506094025 45 43 0.0 2.0 0.04 1.39 0.34 99 1012.8
20260506093030 45 0.0 0.0 0.04 1.39 0.34 99 1013.0
20260506092018 45 28 0.0 2.0 0.05 1.39 0.34 99 1012.9
20260506091023 45 0.0 0.0 0.05 1.39 0.34 99 1013.2
20260506090049 46 165 0.0 1.0 0.04 1.38 0.32 99 1013.0
20260506085033 46 3 0.0 1.0 0.01 1.35 0.30 99 1012.8
20260506084058 46 307 0.0 2.0 0.01 1.35 0.30 99 1012.5
20260506083026 46 0.0 0.0 0.01 1.35 0.30 99 1012.2
20260506082031 46 348 0.0 1.0 0.00 1.34 0.28 99 1012.0
20260506081035 46 317 1.0 3.0 0.00 1.34 0.28 99 1011.9
20260506073022 48 360 0.0 1.0 0.00 1.34 0.28 99 1011.7
20260506072026 48 325 0.0 2.0 0.08 1.34 0.28 99 1012.1
20260506071031 48 350 0.0 1.0 0.24 1.34 0.28 99 1012.5
20260506062023 49 306 0.0 3.0 0.19 1.25 0.20 99 1011.9
20260506061027 49 266 1.0 3.0 0.03 1.09 0.04 99 1011.7
20260506051023 49 0.0 2.0 0.02 1.06 0.01 99 1010.5
20260506045033 50 321 0.0 3.0 0.01 1.05 1.05 99 1010.5
20260506044021 50 344 0.0 2.0 0.01 1.05 1.05 99 1011.0
20260506043026 50 4 0.0 2.0 0.02 1.05 1.05 99 1011.0
20260506042031 50 47 0.0 3.0 0.06 1.05 1.05 99 1011.0
20260506041018 50 349 0.0 4.0 0.07 1.04 1.04 99 1010.9
20260506040024 51 335 1.0 4.0 0.08 1.04 1.04 99 1010.9
20260506035029 51 341 0.0 2.0 0.09 1.04 1.04 99 1010.7
20260506034038 51 9 0.0 2.0 0.09 1.04 1.04 99 1010.5
20260506033022 51 351 0.0 1.0 0.09 1.03 1.03 99 1010.3
20260506032047 51 288 0.0 4.0 0.06 0.99 0.99 99 1010.2
20260506031032 51 0.0 1.0 0.05 0.97 0.97 99 1010.1
20260506030020 51 307 0.0 4.0 0.04 0.96 0.96 99 1009.7
20260506025024 52 342 1.0 6.0 0.03 0.95 0.95 99 1009.9
20260506024029 52 337 1.0 4.0 0.05 0.95 0.95 99 1009.5
20260506023018 52 32 0.0 3.0 0.05 0.94 0.94 99 1009.3
20260506022023 53 334 1.0 7.0 0.04 0.93 0.93 99 1009.2
20260506021027 53 301 2.0 7.0 0.05 0.92 0.92 99 1009.1
20260506020053 54 354 1.0 4.0 0.05 0.92 0.92 99 1008.6
20260506015021 54 338 0.0 2.0 0.05 0.92 0.92 99 1008.2
20260506014026 55 0.0 0.0 0.04 0.90 0.90 99 1008.3
20260506013030 55 0.0 0.0 0.03 0.89 0.89 99 1008.4
20260506012019 55 0.0 0.0 0.04 0.89 0.89 99 1008.3
20260506011024 55 0.0 0.0 0.05 0.87 0.87 99 1008.0
20260506010029 55 267 0.0 1.0 0.05 0.87 0.87 99 1008.3
20260506005037 55 0.0 0.0 0.06 0.87 0.87 99 1008.2
20260506004042 55 0.0 0.0 0.06 0.86 0.86 99 1008.1
20260506003026 55 65 0.0 1.0 0.07 0.86 0.86 99 1008.1
20260506002031 56 343 0.0 1.0 0.07 0.85 0.85 99 1008.5
20260506001019 56 0.0 0.0 0.06 0.82 0.82 99 1008.4
20260506000044 56 0.0 0.0 0.10 0.82 0.82 99 1008.2
20260505235049 56 0.0 1.0 0.17 0.81 0.81 99 1008.0
20260505234017 56 68 0.0 3.0 0.19 0.80 0.80 99 1007.9
20260505233022 56 339 0.0 2.0 0.19 0.79 0.79 99 1008.4
20260505232027 56 316 0.0 2.0 0.18 0.78 0.78 99 1008.3
20260505231032 56 308 0.0 4.0 0.17 0.76 0.76 99 1008.6
20260505230020 58 332 4.0 9.0 0.13 0.72 0.72 99 1008.9
20260505225133 63 315 4.0 9.0 0.06 0.64 0.64 99 1008.7
20260505224111 63 272 3.0 4.0 0.05 0.61 0.61 99 1008.5
20260505223035 63 254 1.0 6.0 0.04 0.60 0.60 99 1008.4
20260505222043 63 232 2.0 4.0 0.05 0.60 0.60 99 1008.4
20260505221028 63 203 3.0 6.0 0.04 0.59 0.59 99 1008.5
20260505220032 63 227 2.0 7.0 0.04 0.59 0.59 99 1008.5
20260505215020 63 200 1.0 4.0 0.03 0.58 0.58 99 1008.5
20260505214026 63 191 0.0 2.0 0.02 0.56 0.56 99 1008.4
20260505213030 63 198 1.0 3.0 0.02 0.56 0.56 99 1008.4
20260505212018 63 240 0.0 3.0 0.02 0.55 0.55 99 1008.6
20260505211024 63 220 2.0 3.0 0.02 0.55 0.55 99 1008.5
20260505210028 63 254 0.0 3.0 0.02 0.55 0.55 99 1008.3
20260505205016 63 219 1.0 3.0 0.02 0.55 0.55 99 1008.5
20260505204022 63 226 1.0 3.0 0.01 0.54 0.54 99 1008.5
20260505203026 63 217 1.0 4.0 0.01 0.54 0.54 99 1008.5
20260505202031 63 213 1.0 4.0 0.01 0.53 0.53 99 1008.5
20260505201040 63 206 3.0 7.0 0.01 0.53 0.53 99 1008.6
20260505200024 63 210 2.0 7.0 0.01 0.53 0.53 99 1008.8
20260505195029 63 204 2.0 7.0 0.01 0.53 0.53 99 1008.6
20260505194017 63 183 1.0 3.0 0.01 0.53 0.53 99 1008.7